N786BP KMFE-KCRP

Flight info

Callsign N786BP
Flight time 0h 34m
Altitude 21000
Route MFE V20 JIMIE V407 JETTY
Aircraft STAR/L-VGD/C

Departure

Time 2026-04-28 22:55
Airport McAllen Miller International Airport (KMFE)

Arrival

Time 2026-04-28 23:30
Airport Corpus Christi International Airport (KCRP)
Time Latitude Longitude Altitude Speed Heading
2026-04-28 22:48 26.17794 -98.23516 105 ft 0 kts 178°
2026-04-28 22:51 26.17740 -98.23538 105 ft 14 kts 208°
2026-04-28 22:51 26.17715 -98.23625 104 ft 17 kts 277°
2026-04-28 22:51 26.17732 -98.23754 104 ft 25 kts 281°
2026-04-28 22:52 26.17756 -98.23928 105 ft 21 kts 276°
2026-04-28 22:52 26.17847 -98.24072 103 ft 24 kts 324°
2026-04-28 22:52 26.17955 -98.24169 106 ft 25 kts 319°
2026-04-28 22:52 26.18133 -98.24340 109 ft 31 kts 319°
2026-04-28 22:53 26.18270 -98.24450 111 ft 17 kts 322°
2026-04-28 22:53 26.18328 -98.24564 110 ft 13 kts 234°
2026-04-28 22:53 26.18298 -98.24601 111 ft 0 kts 229°
2026-04-28 22:54 26.18292 -98.24608 111 ft 6 kts 221°
2026-04-28 22:54 26.18257 -98.24601 112 ft 3 kts 139°
2026-04-28 22:54 26.18256 -98.24600 112 ft 0 kts 139°
2026-04-28 22:54 26.18110 -98.24464 112 ft 49 kts 141°
2026-04-28 22:55 26.17750 -98.24142 104 ft 84 kts 141°
2026-04-28 22:55 26.17241 -98.23664 347 ft 104 kts 139°
2026-04-28 22:55 26.16648 -98.23098 714 ft 123 kts 140°
2026-04-28 22:55 26.15952 -98.22437 1053 ft 140 kts 140°
2026-04-28 22:56 26.15148 -98.21656 1236 ft 169 kts 136°
2026-04-28 22:56 26.14462 -98.20489 1328 ft 194 kts 117°
2026-04-28 22:56 26.14112 -98.18962 1714 ft 210 kts 100°
2026-04-28 22:56 26.14189 -98.17308 2312 ft 220 kts 85°
2026-04-28 22:57 26.14713 -98.15655 2889 ft 233 kts 69°
2026-04-28 22:57 26.15640 -98.14138 3499 ft 241 kts 52°
2026-04-28 22:57 26.16895 -98.12871 4101 ft 246 kts 39°
2026-04-28 22:57 26.18266 -98.11768 4764 ft 247 kts 37°
2026-04-28 22:58 26.19674 -98.10683 5454 ft 247 kts 36°
2026-04-28 22:58 26.21150 -98.09678 6092 ft 249 kts 28°
2026-04-28 22:58 26.22633 -98.08682 6722 ft 250 kts 33°
2026-04-28 22:58 26.24124 -98.07675 7376 ft 250 kts 30°
2026-04-28 22:59 26.25632 -98.06719 8057 ft 250 kts 30°
2026-04-28 22:59 26.27133 -98.05721 8685 ft 252 kts 30°
2026-04-28 22:59 26.28632 -98.04729 9423 ft 249 kts 29°
2026-04-28 22:59 26.30133 -98.03754 10051 ft 252 kts 28°
2026-04-28 23:00 26.31620 -98.02776 10697 ft 249 kts 29°
2026-04-28 23:00 26.33111 -98.01792 11312 ft 251 kts 29°
2026-04-28 23:00 26.34622 -98.00796 11948 ft 251 kts 28°
2026-04-28 23:00 26.36113 -97.99819 12649 ft 249 kts 28°
2026-04-28 23:01 26.37614 -97.98827 13294 ft 250 kts 28°
2026-04-28 23:01 26.39112 -97.97844 13971 ft 249 kts 27°
2026-04-28 23:01 26.40608 -97.96854 14605 ft 251 kts 27°
2026-04-28 23:01 26.42104 -97.95871 15319 ft 248 kts 27°
2026-04-28 23:02 26.43570 -97.94903 16014 ft 248 kts 27°
2026-04-28 23:02 26.45054 -97.93922 16729 ft 247 kts 26°
2026-04-28 23:02 26.46528 -97.92956 17479 ft 246 kts 26°
2026-04-28 23:02 26.47995 -97.91981 18212 ft 245 kts 25°
2026-04-28 23:03 26.49464 -97.91017 18840 ft 245 kts 25°
2026-04-28 23:03 26.50935 -97.90044 19448 ft 247 kts 25°
2026-04-28 23:03 26.52413 -97.89066 20065 ft 249 kts 25°
2026-04-28 23:03 26.53946 -97.88058 20410 ft 261 kts 25°
2026-04-28 23:04 26.55529 -97.87011 20641 ft 275 kts 25°
2026-04-28 23:04 26.58961 -97.84739 20813 ft 297 kts 25°
2026-04-28 23:04 26.60763 -97.83547 20841 ft 305 kts 26°
2026-04-28 23:05 26.62604 -97.82328 20855 ft 311 kts 26°
2026-04-28 23:05 26.64479 -97.81086 20865 ft 315 kts 26°
2026-04-28 23:05 26.66376 -97.79829 20870 ft 318 kts 26°
2026-04-28 23:05 26.68285 -97.78563 20871 ft 320 kts 25°
2026-04-28 23:06 26.70201 -97.77296 20871 ft 320 kts 25°
2026-04-28 23:06 26.72134 -97.76079 20870 ft 317 kts 20°
2026-04-28 23:06 26.74140 -97.75167 20871 ft 315 kts 15°
2026-04-28 23:06 26.76203 -97.74355 20879 ft 314 kts 13°
2026-04-28 23:07 26.78273 -97.73579 20879 ft 314 kts 13°
2026-04-28 23:07 26.80353 -97.72831 20879 ft 313 kts 10°
2026-04-28 23:07 26.82464 -97.72321 20879 ft 310 kts
2026-04-28 23:07 26.84576 -97.71805 20877 ft 312 kts
2026-04-28 23:08 26.86683 -97.71236 20880 ft 311 kts
2026-04-28 23:08 26.88795 -97.70720 20879 ft 311 kts
2026-04-28 23:08 26.90876 -97.70173 20881 ft 311 kts
2026-04-28 23:08 26.92983 -97.69637 20881 ft 311 kts
2026-04-28 23:09 26.95092 -97.69100 20882 ft 311 kts
2026-04-28 23:09 26.97203 -97.68555 20887 ft 311 kts
2026-04-28 23:09 26.99315 -97.68016 20885 ft 311 kts
2026-04-28 23:09 27.01429 -97.67476 20883 ft 312 kts
2026-04-28 23:10 27.03542 -97.66932 20882 ft 312 kts
2026-04-28 23:10 27.05655 -97.66391 20881 ft 312 kts
2026-04-28 23:10 27.07771 -97.65849 20881 ft 312 kts
2026-04-28 23:10 27.09856 -97.65313 20881 ft 312 kts
2026-04-28 23:11 27.11968 -97.64771 20882 ft 312 kts
2026-04-28 23:11 27.14079 -97.64229 20882 ft 311 kts
2026-04-28 23:11 27.16193 -97.63686 20881 ft 311 kts
2026-04-28 23:11 27.18307 -97.63143 20881 ft 311 kts
2026-04-28 23:12 27.20421 -97.62600 20877 ft 312 kts
2026-04-28 23:12 27.22531 -97.62058 20878 ft 311 kts
2026-04-28 23:12 27.24644 -97.61513 20878 ft 312 kts
2026-04-28 23:12 27.26759 -97.60970 20871 ft 312 kts
2026-04-28 23:13 27.28857 -97.60429 20741 ft 316 kts
2026-04-28 23:13 27.31047 -97.59869 20306 ft 328 kts
2026-04-28 23:13 27.33294 -97.59285 19889 ft 332 kts
2026-04-28 23:13 27.35530 -97.58708 19471 ft 327 kts
2026-04-28 23:14 27.37739 -97.58142 19056 ft 324 kts
2026-04-28 23:14 27.39922 -97.57576 18653 ft 321 kts
2026-04-28 23:14 27.42090 -97.57018 18249 ft 318 kts
2026-04-28 23:14 27.44240 -97.56463 17787 ft 316 kts
2026-04-28 23:15 27.46352 -97.55938 17331 ft 313 kts
2026-04-28 23:15 27.48505 -97.55767 16880 ft 308 kts 354°
2026-04-28 23:15 27.50627 -97.55945 16432 ft 305 kts 350°
2026-04-28 23:15 27.52733 -97.56221 15998 ft 304 kts 346°
2026-04-28 23:16 27.54828 -97.56548 15552 ft 303 kts 344°
2026-04-28 23:16 27.56913 -97.56928 15090 ft 304 kts 345°
2026-04-28 23:16 27.58965 -97.57474 14622 ft 302 kts 340°
2026-04-28 23:16 27.61013 -97.58012 14153 ft 303 kts 343°
2026-04-28 23:17 27.63068 -97.58525 13716 ft 302 kts 341°
2026-04-28 23:17 27.65085 -97.59063 13222 ft 302 kts 343°
2026-04-28 23:17 27.67136 -97.59588 12720 ft 302 kts 345°
2026-04-28 23:17 27.69184 -97.60104 12223 ft 301 kts 344°
2026-04-28 23:18 27.71225 -97.60651 11743 ft 301 kts 345°
2026-04-28 23:18 27.73264 -97.61177 11269 ft 300 kts 345°
2026-04-28 23:18 27.75299 -97.61701 10803 ft 300 kts 345°
2026-04-28 23:18 27.77327 -97.62246 10342 ft 299 kts 345°
2026-04-28 23:19 27.79347 -97.62759 9823 ft 293 kts 344°
2026-04-28 23:19 27.81233 -97.63508 9260 ft 283 kts 332°
2026-04-28 23:19 27.82893 -97.64650 8696 ft 276 kts 320°
2026-04-28 23:19 27.84351 -97.65985 8143 ft 272 kts 316°
2026-04-28 23:20 27.85780 -97.67377 7616 ft 271 kts 315°
2026-04-28 23:20 27.87222 -97.68734 7070 ft 271 kts 321°
2026-04-28 23:20 27.88784 -97.69915 6549 ft 269 kts 320°
2026-04-28 23:20 27.90251 -97.71223 6008 ft 268 kts 316°
2026-04-28 23:21 27.91720 -97.72513 5454 ft 269 kts 323°
2026-04-28 23:21 27.93399 -97.73464 4910 ft 272 kts 336°
2026-04-28 23:21 27.95251 -97.73920 4369 ft 275 kts 357°
2026-04-28 23:21 27.97089 -97.73496 3812 ft 275 kts 24°
2026-04-28 23:22 27.98600 -97.72215 3266 ft 271 kts 51°
2026-04-28 23:22 27.99446 -97.70361 2715 ft 262 kts 80°
2026-04-28 23:22 27.99440 -97.68381 2345 ft 244 kts 109°
2026-04-28 23:22 27.98626 -97.66817 2162 ft 222 kts 139°
2026-04-28 23:23 27.97332 -97.66057 2072 ft 202 kts 165°
2026-04-28 23:23 27.96026 -97.65691 2029 ft 184 kts 167°
2026-04-28 23:23 27.94886 -97.65235 2012 ft 170 kts 160°
2026-04-28 23:23 27.93814 -97.64722 2000 ft 166 kts 158°
2026-04-28 23:24 27.92779 -97.64185 1995 ft 162 kts 156°
2026-04-28 23:24 27.91785 -97.63628 1993 ft 154 kts 154°
2026-04-28 23:24 27.90881 -97.63101 1990 ft 142 kts 154°
2026-04-28 23:24 27.90028 -97.62586 1991 ft 138 kts 153°
2026-04-28 23:25 27.89207 -97.62061 1989 ft 134 kts 153°
2026-04-28 23:25 27.88408 -97.61525 1990 ft 135 kts 152°
2026-04-28 23:25 27.87600 -97.60956 1990 ft 137 kts 150°
2026-04-28 23:25 27.86818 -97.60362 1990 ft 134 kts 148°
2026-04-28 23:26 27.86081 -97.59758 1993 ft 131 kts 147°
2026-04-28 23:26 27.85364 -97.59141 2003 ft 128 kts 147°
2026-04-28 23:26 27.84674 -97.58522 1996 ft 125 kts 147°
2026-04-28 23:26 27.83980 -97.57896 1731 ft 129 kts 147°
2026-04-28 23:27 27.83311 -97.57288 1442 ft 122 kts 146°
2026-04-28 23:27 27.82640 -97.56685 1274 ft 124 kts 144°
2026-04-28 23:27 27.81974 -97.56052 1134 ft 126 kts 141°
2026-04-28 23:27 27.81334 -97.55352 996 ft 131 kts 138°
2026-04-28 23:28 27.80688 -97.54612 829 ft 123 kts 137°
2026-04-28 23:28 27.80192 -97.54037 686 ft 90 kts 137°
2026-04-28 23:28 27.79736 -97.53538 550 ft 92 kts 140°
2026-04-28 23:28 27.79265 -97.53040 375 ft 93 kts 140°
2026-04-28 23:29 27.78803 -97.52531 221 ft 91 kts 141°
2026-04-28 23:29 27.78333 -97.52031 126 ft 97 kts 140°
2026-04-28 23:29 27.77814 -97.51463 72 ft 107 kts 138°
2026-04-28 23:29 27.77336 -97.50941 50 ft 83 kts 138°
2026-04-28 23:30 27.76994 -97.50570 47 ft 46 kts 137°
2026-04-28 23:30 27.76885 -97.50382 47 ft 29 kts 106°
2026-04-28 23:30 27.76838 -97.50204 49 ft 18 kts 106°
2026-04-28 23:30 27.76932 -97.50233 49 ft 28 kts 314°
2026-04-28 23:31 27.77088 -97.50402 49 ft 39 kts 317°
2026-04-28 23:31 27.77298 -97.50628 50 ft 37 kts 313°
2026-04-28 23:31 27.77421 -97.50678 50 ft 23 kts 40°
2026-04-28 23:31 27.77521 -97.50565 50 ft 16 kts 45°
2026-04-28 23:32 27.77576 -97.50488 50 ft 7 kts 29°
2026-04-28 23:32 27.77587 -97.50493 50 ft 0 kts 314°